Temp
-11 -11 -11 -10 -11 -11 -10 -10 -10 -9 -9 -9 -9 -8 -8 -8 -7 -7 -7 -7 -7 -6 -6 -6 -6 -6 -6 -6 -6 -6 -6 -6 -6 -6 -6 -6 -6 -6 -6 -6 -6 -6 -5 -5 -6 -6 -6 -6 -6 -6 -6 -6 -6 -6 -5 -5 -6 -6 -6 -6 -6 -6 -6
-11 -11 -11 -11 -11 -11 -10 -10 -10 -10 -9 -9 -9 -8 -8 -8 -8 -7 -7 -7 -7 -7 -6 -6 -6 -6 -6 -6 -6 -6 -6 -6 -6 -6 -6 -6 -6 -6 -6 -6 -6 -6 -5 -5 -5 -6 -6 -6 -5 -6 -6 -6 -5 -5 -5 -5 -5 -6 -6 -6 -6 -6 -6
-12 -11 -11 -11 -11 -10 -10 -10 -10 -10 -10 -9 -9 -8 -8 -8 -8 -7 -7 -7 -7 -7 -7 -7 -7 -6 -6 -6 -6 -6 -6 -6 -6 -6 -6 -6 -5 -5 -5 -5 -6 -6 -5 -5 -5 -6 -6 -6 -5 -5 -6 -6 -5 -5 -5 -5 -5 -5 -5 -6 -6 -6 -6
-12 -11 -11 -11 -11 -10 -10 -10 -10 -10 -10 -9 -9 -8 -8 -8 -8 -7 -7 -7 -7 -7 -7 -7 -7 -6 -6 -6 -6 -6 -6 -6 -6 -5 -5 -5 -6 -6 -5 -5 -5 -5 -5 -5 -6 -6 -6 -5 -5 -6 -6 -6 -5 -5 -5 -5 -5 -5 -5 -6 -6 -6 -6
-12 -12 -11 -11 -11 -10 -10 -10 -10 -10 -10 -10 -9 -9 -9 -8 -8 -8 -7 -7 -7 -7 -7 -6 -6 -6 -6 -6 -6 -6 -6 -6 -6 -5 -5 -5 -5 -5 -5 -5 -5 -5 -5 -5 -6 -6 -6 -5 -5 -6 -6 -6 -5 -5 -5 -5 -5 -5 -5 -5 -5 -5 -6
-12 -12 -12 -12 -11 -11 -10 -10 -10 -10 -10 -10 -10 -9 -9 -9 -9 -8 -8 -8 -7 -7 -7 -7 -6 -6 -6 -6 -6 -6 -6 -6 -5 -5 -5 -5 -5 -5 -5 -5 -5 -5 -6 -6 -6 -6 -6 -6 -6 -6 -6 -6 -6 -6 -5 -5 -5 -5 -5 -5 -5 -5 -6
-12 -12 -12 -12 -11 -11 -11 -11 -10 -10 -10 -10 -10 -9 -9 -9 -9 -8 -8 -8 -7 -7 -7 -7 -7 -6 -6 -6 -6 -6 -6 -6 -5 -5 -5 -5 -6 -6 -6 -6 -5 -6 -5 -5 -6 -6 -6 -6 -6 -6 -7 -7 -7 -7 -6 -6 -6 -6 -6 -6 -6 -6 -6
-11 -11 -11 -11 -11 -11 -11 -11 -11 -10 -10 -10 -10 -10 -10 -9 -9 -9 -9 -8 -8 -7 -7 -7 -7 -6 -6 -6 -6 -6 -6 -6 -5 -5 -6 -6 -6 -6 -6 -5 -5 -6 -5 -5 -6 -6 -6 -6 -6 -6 -7 -7 -7 -7 -7 -6 -6 -6 -6 -6 -6 -6 -6
-11 -11 -11 -11 -11 -11 -11 -11 -11 -10 -10 -11 -10 -10 -10 -10 -10 -10 -9 -9 -8 -8 -7 -7 -7 -7 -7 -6 -7 -7 -7 -6 -6 -6 -6 -6 -6 -6 -5 -5 -5 -5 -5 -5 -6 -6 -6 -6 -6 -6 -7 -7 -7 -7 -6 -6 -6 -6 -6 -6 -6 -6 -6
-11 -12 -12 -12 -12 -12 -11 -11 -11 -11 -11 -11 -10 -10 -10 -10 -10 -10 -9 -9 -8 -8 -7 -7 -7 -7 -7 -7 -6 -7 -7 -7 -7 -7 -6 -6 -5 -5 -5 -5 -5 -5 -5 -5 -6 -6 -6 -6 -6 -6 -7 -7 -7 -6 -6 -6 -6 -6 -6 -6 -6 -6 -6
-11 -11 -11 -12 -12 -12 -11 -11 -11 -11 -11 -11 -11 -10 -10 -10 -10 -10 -10 -9 -9 -8 -7 -7 -7 -7 -7 -7 -7 -7 -7 -7 -7 -7 -6 -6 -5 -5 -5 -5 -5 -5 -5 -5 -5 -5 -5 -6 -6 -6 -6 -6 -6 -6 -6 -6 -6 -6 -6 -6 -6 -6 -6
-11 -11 -11 -12 -12 -12 -11 -11 -11 -11 -11 -11 -11 -10 -10 -10 -10 -10 -10 -9 -9 -9 -8 -7 -7 -7 -7 -7 -7 -7 -7 -7 -6 -6 -6 -6 -6 -5 -5 -5 -5 -5 -5 -5 -5 -5 -5 -5 -6 -6 -6 -6 -6 -5 -6 -6 -6 -6 -5 -5 -6 -6 -6
-12 -11 -11 -12 -12 -11 -11 -11 -11 -11 -11 -11 -11 -10 -10 -10 -10 -10 -10 -10 -9 -9 -8 -8 -8 -8 -8 -7 -7 -7 -7 -7 -7 -7 -7 -7 -6 -6 -6 -5 -5 -5 -5 -5 -5 -5 -5 -6 -6 -6 -6 -6 -6 -5 -5 -6 -6 -6 -5 -5 -5 -5 -6
-12 -12 -11 -12 -12 -12 -11 -11 -11 -11 -11 -11 -11 -10 -10 -10 -10 -10 -10 -10 -10 -9 -8 -7 -7 -7 -8 -7 -7 -7 -7 -7 -7 -7 -7 -7 -7 -7 -7 -6 -6 -6 -6 -6 -6 -6 -6 -6 -6 -6 -5 -5 -5 -5 -6 -6 -6 -6 -6 -5 -5 -5 -6
-12 -11 -11 -12 -12 -12 -11 -11 -11 -11 -11 -11 -11 -11 -10 -10 -10 -10 -10 -10 -9 -8 -8 -7 -7 -7 -7 -7 -7 -7 -7 -7 -7 -7 -7 -7 -7 -7 -7 -7 -7 -7 -7 -7 -6 -6 -6 -6 -6 -6 -5 -5 -5 -5 -6 -6 -6 -6 -6 -6 -6 -6 -6
-12 -12 -12 -12 -12 -12 -12 -11 -11 -11 -11 -11 -11 -11 -11 -11 -10 -10 -10 -9 -8 -8 -7 -7 -6 -6 -7 -7 -8 -8 -8 -7 -7 -7 -7 -7 -6 -7 -7 -7 -7 -7 -7 -7 -7 -7 -7 -7 -7 -7 -7 -6 -6 -5 -6 -6 -6 -6 -6 -6 -6 -6 -6
-12 -12 -12 -12 -12 -12 -12 -11 -11 -11 -11 -11 -11 -11 -11 -11 -10 -10 -9 -9 -8 -8 -8 -7 -7 -7 -7 -8 -8 -8 -8 -8 -7 -7 -7 -7 -7 -6 -7 -7 -7 -7 -7 -7 -7 -7 -8 -8 -8 -7 -7 -7 -6 -6 -6 -6 -6 -6 -6 -6 -6 -7 -7
-13 -13 -12 -12 -12 -12 -12 -12 -11 -11 -11 -11 -11 -11 -11 -10 -9 -9 -9 -9 -9 -8 -8 -8 -8 -7 -8 -8 -8 -8 -7 -7 -7 -8 -8 -8 -7 -7 -7 -7 -7 -7 -7 -7 -7 -7 -8 -8 -8 -7 -7 -7 -6 -6 -6 -6 -6 -6 -6 -6 -6 -7 -7
-14 -13 -12 -12 -12 -12 -12 -12 -12 -11 -11 -11 -11 -11 -11 -10 -9 -9 -9 -9 -9 -9 -8 -8 -8 -8 -8 -8 -8 -8 -7 -7 -7 -8 -8 -8 -8 -8 -7 -7 -7 -7 -7 -8 -8 -8 -8 -8 -8 -8 -7 -7 -7 -6 -6 -6 -6 -6 -7 -7 -7 -7 -7
-14 -13 -13 -13 -12 -12 -12 -12 -12 -12 -12 -11 -11 -11 -11 -10 -9 -9 -9 -9 -9 -8 -8 -8 -9 -9 -8 -8 -8 -8 -8 -7 -8 -9 -8 -8 -8 -8 -7 -7 -7 -7 -7 -7 -7 -7 -7 -8 -8 -8 -8 -7 -7 -7 -7 -7 -7 -7 -7 -7 -7 -7 -7
-14 -14 -13 -13 -12 -12 -12 -12 -11 -12 -12 -12 -12 -11 -11 -11 -10 -9 -10 -10 -9 -9 -9 -9 -9 -9 -9 -8 -8 -8 -8 -8 -8 -8 -8 -7 -7 -7 -7 -7 -7 -8 -8 -7 -7 -7 -7 -7 -8 -8 -8 -8 -8 -7 -7 -7 -7 -7 -7 -7 -7 -7 -7
-14 -14 -13 -13 -12 -12 -12 -12 -12 -12 -12 -11 -12 -11 -11 -11 -11 -10 -10 -10 -10 -9 -9 -9 -10 -9 -9 -8 -8 -8 -8 -9 -8 -8 -8 -8 -7 -7 -8 -8 -8 -8 -8 -8 -8 -8 -8 -8 -8 -8 -8 -8 -8 -8 -8 -8 -8 -8 -8 -8 -8 -8 -8
-14 -14 -14 -13 -13 -12 -12 -12 -12 -12 -11 -11 -11 -11 -11 -11 -11 -11 -11 -10 -10 -10 -10 -10 -10 -10 -9 -9 -9 -9 -9 -9 -9 -9 -9 -8 -8 -8 -9 -10 -10 -9 -9 -9 -9 -8 -8 -8 -8 -8 -8 -8 -8 -8 -8 -8 -8 -8 -8 -8 -8 -8 -8
-14 -14 -14 -13 -13 -13 -12 -12 -12 -12 -12 -11 -11 -11 -11 -11 -11 -11 -11 -11 -11 -11 -11 -11 -11 -10 -10 -10 -10 -9 -9 -9 -9 -9 -10 -9 -9 -9 -10 -10 -10 -10 -10 -9 -9 -9 -9 -9 -9 -9 -9 -9 -8 -9 -9 -8 -8 -8 -8 -8 -8 -8 -8
-14 -14 -13 -13 -13 -13 -13 -13 -12 -12 -12 -11 -11 -11 -11 -11 -11 -11 -11 -11 -11 -11 -11 -11 -11 -11 -10 -10 -10 -10 -10 -10 -10 -10 -10 -10 -10 -10 -10 -10 -10 -10 -10 -10 -10 -10 -9 -9 -9 -9 -9 -9 -9 -9 -9 -9 -9 -9 -8 -8 -8 -8 -8
-14 -13 -13 -13 -13 -13 -13 -13 -13 -12 -12 -12 -12 -12 -12 -12 -12 -12 -11 -12 -12 -12 -12 -11 -11 -11 -11 -11 -10 -10 -10 -10 -10 -11 -10 -10 -10 -10 -10 -10 -10 -11 -11 -10 -10 -10 -10 -9 -9 -9 -9 -9 -9 -9 -9 -9 -9 -9 -9 -8 -8 -8 -8
-14 -14 -14 -14 -13 -13 -13 -13 -13 -13 -12 -12 -12 -12 -12 -12 -12 -12 -12 -12 -12 -12 -11 -11 -11 -11 -11 -11 -11 -11 -11 -11 -11 -11 -10 -10 -10 -10 -10 -10 -10 -10 -11 -10 -10 -10 -10 -10 -9 -9 -9 -9 -9 -9 -9 -9 -9 -9 -9 -9 -9 -9 -8
-14 -14 -14 -14 -13 -13 -13 -13 -13 -13 -13 -12 -12 -12 -12 -12 -12 -12 -12 -12 -12 -12 -12 -11 -11 -11 -11 -11 -11 -11 -11 -11 -11 -11 -11 -10 -10 -10 -10 -10 -10 -10 -10 -10 -10 -10 -10 -10 -10 -10 -10 -10 -10 -10 -10 -10 -9 -9 -9 -9 -9 -9 -9
-14 -14 -14 -14 -13 -13 -13 -13 -13 -13 -13 -13 -12 -12 -12 -12 -12 -12 -12 -12 -12 -12 -12 -12 -12 -12 -11 -11 -11 -11 -11 -11 -11 -11 -11 -11 -11 -10 -10 -10 -10 -10 -10 -10 -10 -10 -10 -10 -10 -10 -10 -10 -10 -10 -10 -10 -10 -10 -9 -9 -9 -9 -9
-14 -14 -14 -14 -13 -13 -13 -13 -13 -13 -13 -13 -13 -13 -13 -13 -13 -13 -13 -12 -12 -12 -12 -12 -12 -12 -12 -12 -12 -12 -12 -12 -12 -11 -11 -11 -11 -11 -11 -11 -11 -11 -11 -11 -11 -11 -11 -10 -10 -10 -10 -10 -10 -10 -10 -10 -10 -10 -9 -9 -9 -9 -9
-14 -14 -14 -14 -13 -13 -13 -13 -13 -13 -13 -13 -13 -13 -13 -13 -13 -13 -13 -12 -12 -12 -12 -12 -12 -12 -12 -12 -12 -12 -12 -12 -12 -12 -12 -12 -12 -12 -11 -11 -11 -11 -11 -11 -11 -11 -11 -11 -11 -11 -10 -10 -10 -10 -10 -10 -10 -10 -10 -10 -9 -9 -9
-14 -14 -13 -13 -13 -13 -13 -13 -13 -13 -13 -13 -13 -13 -13 -13 -13 -13 -13 -12 -12 -12 -12 -12 -12 -12 -12 -12 -12 -12 -12 -12 -12 -12 -12 -12 -12 -12 -12 -12 -12 -12 -11 -11 -12 -12 -12 -11 -11 -11 -11 -11 -11 -11 -10 -10 -10 -10 -10 -10 -10 -10 -10
-14 -14 -13 -13 -13 -13 -13 -13 -13 -13 -13 -13 -13 -13 -13 -13 -13 -13 -13 -13 -13 -12 -12 -12 -12 -12 -12 -12 -12 -12 -12 -12 -12 -12 -12 -12 -12 -12 -12 -12 -12 -12 -12 -12 -12 -12 -12 -12 -12 -11 -11 -11 -11 -11 -11 -11 -11 -10 -10 -10 -10 -10 -10
-14 -14 -14 -14 -14 -14 -14 -13 -13 -13 -13 -13 -14 -14 -14 -13 -13 -13 -13 -13 -13 -13 -13 -13 -13 -13 -12 -13 -13 -12 -12 -12 -12 -12 -12 -12 -12 -12 -12 -12 -12 -12 -12 -12 -12 -12 -12 -12 -12 -12 -12 -11 -11 -11 -11 -11 -11 -11 -11 -10 -10 -10 -10
-14 -14 -14 -14 -14 -14 -14 -14 -14 -14 -14 -14 -14 -14 -14 -14 -14 -14 -13 -13 -13 -13 -13 -13 -13 -13 -13 -13 -13 -13 -13 -13 -12 -12 -12 -12 -12 -12 -12 -12 -12 -12 -12 -12 -12 -12 -12 -12 -12 -12 -12 -12 -12 -12 -11 -11 -11 -11 -11 -11 -11 -10 -10
-14 -14 -14 -14 -14 -14 -14 -14 -14 -14 -14 -14 -13 -14 -14 -13 -13 -13 -13 -13 -13 -13 -13 -13 -13 -13 -13 -13 -13 -13 -13 -13 -13 -13 -13 -13 -13 -13 -13 -13 -13 -12 -12 -12 -12 -12 -12 -12 -12 -12 -12 -12 -12 -12 -12 -12 -11 -11 -11 -11 -11 -11 -11
-14 -14 -14 -14 -14 -14 -14 -14 -14 -14 -14 -14 -13 -13 -13 -13 -13 -13 -13 -13 -13 -13 -13 -13 -13 -13 -13 -13 -13 -13 -13 -13 -13 -13 -13 -13 -13 -13 -13 -13 -13 -13 -13 -13 -13 -13 -13 -13 -12 -12 -12 -12 -12 -12 -12 -12 -12 -12 -12 -12 -12 -11 -11
Height
5846 5849 5851 5852 5856 5858 5859 5862 5864 5866 5867 5868 5870 5870 5872 5873 5874 5875 5877 5878 5879 5880 5881 5882 5884 5887 5888 5890 5892 5894 5895 5898 5900 5902 5904 5906 5907 5910 5912 5915 5916 5918 5919 5921 5923 5925 5926 5928 5930 5932 5933 5934 5935 5937 5938 5940 5941 5943 5944 5945 5946 5948 5949
5843 5847 5850 5851 5853 5856 5859 5862 5864 5865 5866 5867 5868 5870 5871 5872 5873 5875 5876 5877 5878 5880 5881 5882 5884 5887 5888 5890 5892 5893 5896 5898 5900 5902 5904 5905 5907 5909 5911 5913 5915 5916 5918 5920 5922 5923 5925 5926 5928 5930 5931 5931 5933 5935 5937 5938 5940 5941 5943 5944 5945 5947 5948
5842 5845 5849 5849 5850 5855 5858 5860 5862 5864 5865 5865 5867 5869 5870 5871 5872 5874 5875 5877 5878 5879 5880 5882 5884 5887 5888 5889 5891 5893 5895 5897 5899 5901 5903 5904 5906 5907 5909 5910 5912 5914 5916 5918 5920 5921 5923 5924 5926 5928 5929 5929 5930 5933 5935 5936 5938 5940 5941 5943 5944 5945 5947
5842 5843 5846 5848 5849 5853 5856 5857 5860 5862 5863 5864 5866 5869 5870 5870 5871 5873 5874 5876 5878 5879 5879 5881 5883 5885 5887 5888 5890 5891 5893 5895 5897 5899 5901 5903 5904 5905 5905 5907 5909 5912 5913 5915 5917 5918 5920 5922 5924 5925 5926 5927 5928 5930 5932 5934 5936 5938 5940 5941 5943 5944 5945
5840 5842 5845 5846 5848 5851 5854 5856 5859 5861 5861 5863 5866 5869 5870 5870 5871 5872 5873 5875 5877 5878 5879 5880 5882 5883 5886 5888 5889 5891 5892 5893 5895 5897 5899 5899 5900 5901 5903 5905 5908 5911 5912 5913 5915 5916 5917 5919 5922 5923 5924 5925 5926 5928 5930 5932 5934 5937 5939 5940 5941 5942 5943
5836 5839 5841 5843 5845 5849 5853 5854 5857 5860 5861 5863 5866 5868 5869 5869 5870 5871 5871 5873 5876 5877 5879 5880 5881 5883 5886 5888 5889 5891 5892 5893 5894 5894 5895 5896 5898 5901 5904 5907 5908 5910 5911 5912 5914 5915 5916 5918 5920 5921 5922 5924 5926 5927 5928 5930 5933 5935 5937 5938 5939 5941 5942
5832 5834 5837 5840 5843 5847 5851 5854 5857 5859 5860 5862 5866 5868 5868 5868 5869 5869 5870 5871 5873 5877 5879 5879 5880 5883 5884 5886 5887 5888 5889 5891 5891 5891 5892 5896 5900 5902 5903 5904 5905 5907 5908 5910 5912 5913 5914 5916 5918 5919 5921 5923 5924 5925 5927 5929 5931 5933 5935 5936 5937 5939 5940
5833 5835 5837 5840 5843 5845 5849 5852 5855 5858 5859 5861 5864 5866 5867 5867 5867 5867 5869 5870 5871 5875 5878 5879 5880 5882 5882 5883 5884 5886 5887 5887 5886 5887 5890 5894 5897 5898 5898 5899 5902 5905 5907 5909 5911 5912 5913 5915 5915 5916 5918 5920 5922 5923 5925 5926 5928 5930 5932 5934 5935 5936 5938
5834 5836 5837 5840 5841 5843 5846 5849 5853 5857 5859 5861 5863 5864 5865 5865 5865 5865 5866 5868 5869 5871 5875 5878 5880 5880 5881 5881 5883 5885 5886 5885 5886 5886 5887 5889 5892 5895 5897 5898 5901 5903 5905 5907 5908 5910 5912 5913 5913 5914 5916 5917 5919 5921 5922 5924 5925 5927 5930 5931 5932 5934 5935
5832 5834 5835 5836 5837 5840 5843 5846 5850 5854 5857 5859 5861 5862 5863 5864 5864 5864 5864 5866 5867 5869 5873 5877 5879 5880 5879 5879 5881 5882 5881 5883 5886 5888 5886 5885 5887 5891 5893 5895 5897 5900 5901 5903 5905 5907 5909 5911 5911 5911 5913 5914 5916 5918 5920 5921 5922 5924 5927 5929 5931 5932 5933
5831 5832 5833 5834 5836 5839 5842 5845 5848 5851 5854 5856 5858 5859 5860 5861 5862 5861 5862 5864 5867 5869 5871 5875 5878 5878 5877 5877 5878 5880 5879 5881 5885 5887 5886 5884 5884 5886 5889 5890 5892 5895 5897 5899 5901 5903 5906 5908 5909 5910 5911 5912 5914 5916 5917 5919 5920 5922 5925 5927 5929 5931 5932
5829 5830 5831 5833 5835 5838 5841 5843 5845 5847 5849 5851 5854 5856 5857 5858 5859 5859 5860 5863 5866 5868 5870 5873 5875 5874 5874 5874 5876 5878 5879 5881 5882 5883 5885 5885 5883 5883 5885 5886 5888 5890 5894 5897 5899 5901 5904 5907 5908 5909 5910 5911 5912 5914 5915 5917 5918 5920 5922 5925 5927 5928 5930
5826 5827 5829 5830 5832 5836 5836 5834 5837 5841 5842 5844 5847 5849 5852 5855 5856 5857 5860 5863 5864 5866 5869 5872 5872 5872 5871 5871 5874 5877 5879 5881 5881 5882 5884 5885 5883 5881 5882 5884 5885 5887 5890 5893 5895 5898 5900 5903 5905 5906 5908 5910 5911 5912 5913 5915 5918 5919 5920 5922 5924 5925 5927
5823 5825 5827 5828 5830 5831 5828 5827 5832 5837 5839 5841 5843 5845 5849 5853 5854 5855 5858 5860 5862 5864 5867 5869 5870 5870 5870 5871 5873 5876 5879 5880 5880 5881 5883 5884 5884 5883 5883 5884 5885 5886 5888 5889 5891 5893 5895 5897 5899 5901 5904 5907 5909 5910 5911 5913 5916 5919 5920 5921 5922 5923 5924
5820 5823 5825 5826 5827 5826 5825 5827 5831 5834 5837 5840 5842 5845 5848 5850 5851 5852 5855 5858 5861 5863 5865 5867 5867 5867 5869 5871 5872 5874 5877 5878 5879 5880 5881 5882 5883 5884 5884 5885 5885 5886 5888 5889 5890 5891 5892 5894 5896 5897 5899 5903 5905 5907 5909 5911 5914 5916 5917 5919 5921 5921 5922
5816 5820 5821 5821 5822 5823 5825 5828 5830 5832 5835 5837 5839 5841 5844 5847 5849 5851 5853 5856 5858 5860 5861 5863 5863 5864 5867 5869 5870 5872 5874 5876 5877 5878 5879 5881 5882 5882 5883 5884 5885 5886 5887 5890 5891 5892 5893 5894 5896 5897 5898 5900 5902 5904 5906 5908 5911 5912 5914 5915 5916 5917 5919
5811 5813 5814 5817 5820 5822 5824 5826 5827 5830 5832 5833 5835 5838 5841 5844 5846 5848 5849 5852 5854 5856 5858 5859 5860 5861 5863 5865 5867 5869 5871 5873 5875 5875 5877 5879 5880 5881 5882 5883 5884 5886 5887 5889 5890 5892 5893 5893 5895 5896 5897 5899 5900 5902 5903 5904 5907 5908 5910 5911 5912 5914 5916
5807 5809 5811 5815 5819 5821 5823 5825 5826 5828 5829 5831 5833 5835 5837 5841 5844 5846 5847 5848 5851 5853 5855 5857 5858 5859 5860 5862 5864 5867 5869 5871 5871 5871 5873 5876 5878 5880 5881 5881 5882 5884 5885 5887 5889 5890 5891 5892 5894 5895 5897 5898 5899 5900 5900 5901 5902 5904 5906 5907 5908 5910 5912
5804 5806 5809 5812 5814 5818 5820 5822 5824 5826 5827 5829 5832 5833 5835 5837 5840 5841 5842 5843 5846 5848 5851 5854 5856 5857 5858 5859 5861 5863 5866 5868 5867 5868 5873 5876 5876 5878 5878 5879 5880 5882 5883 5885 5887 5888 5890 5891 5893 5894 5896 5897 5897 5898 5898 5898 5899 5901 5903 5904 5904 5906 5907
5802 5804 5806 5808 5811 5815 5817 5818 5821 5824 5826 5829 5830 5831 5833 5834 5834 5834 5835 5838 5842 5844 5846 5850 5853 5855 5856 5857 5859 5860 5862 5864 5864 5867 5871 5872 5873 5874 5876 5877 5877 5878 5880 5882 5884 5886 5887 5889 5891 5893 5894 5895 5895 5896 5896 5897 5897 5898 5899 5900 5901 5902 5903
5799 5801 5803 5806 5808 5811 5813 5815 5818 5821 5823 5826 5828 5829 5831 5831 5831 5830 5832 5835 5840 5842 5844 5847 5850 5852 5854 5856 5857 5857 5858 5860 5862 5865 5867 5868 5868 5868 5869 5873 5873 5872 5875 5879 5881 5883 5885 5886 5888 5889 5891 5892 5893 5893 5894 5895 5895 5896 5896 5897 5898 5899 5899
5797 5799 5801 5803 5805 5807 5810 5813 5816 5818 5820 5822 5825 5827 5828 5829 5830 5830 5832 5834 5838 5840 5843 5846 5848 5850 5851 5854 5855 5854 5855 5858 5859 5860 5862 5865 5867 5863 5861 5864 5868 5869 5872 5876 5878 5881 5883 5884 5885 5887 5888 5889 5890 5891 5892 5892 5893 5893 5894 5894 5895 5895 5896
5794 5796 5798 5800 5802 5804 5807 5810 5812 5815 5818 5820 5823 5825 5826 5827 5829 5830 5831 5833 5836 5838 5841 5843 5846 5846 5847 5849 5851 5852 5854 5856 5857 5856 5858 5863 5866 5863 5858 5860 5864 5867 5870 5872 5875 5877 5879 5881 5883 5884 5885 5887 5888 5888 5889 5890 5890 5891 5891 5892 5892 5893 5893
5792 5794 5796 5798 5800 5802 5805 5807 5810 5813 5816 5817 5819 5821 5822 5823 5826 5828 5829 5831 5833 5836 5838 5841 5843 5844 5844 5845 5848 5849 5851 5854 5854 5854 5856 5859 5862 5861 5859 5860 5863 5866 5868 5870 5872 5874 5876 5878 5880 5881 5882 5884 5885 5886 5886 5887 5888 5888 5889 5890 5890 5891 5891
5791 5793 5795 5797 5798 5799 5802 5805 5808 5810 5812 5814 5815 5817 5819 5820 5822 5825 5827 5829 5831 5833 5835 5838 5840 5842 5842 5844 5845 5846 5848 5849 5851 5853 5855 5857 5858 5859 5860 5862 5863 5865 5867 5868 5870 5872 5873 5875 5876 5877 5879 5880 5881 5882 5883 5884 5885 5886 5886 5887 5887 5888 5888
5789 5791 5793 5795 5796 5798 5801 5803 5805 5807 5809 5811 5813 5816 5818 5819 5821 5823 5825 5827 5829 5830 5832 5835 5838 5839 5840 5842 5843 5844 5845 5846 5848 5850 5853 5855 5856 5858 5860 5861 5862 5863 5865 5866 5867 5869 5870 5872 5873 5873 5875 5876 5878 5879 5879 5880 5881 5882 5883 5883 5884 5885 5885
5788 5789 5791 5793 5795 5797 5799 5802 5803 5805 5806 5809 5812 5815 5816 5817 5819 5822 5823 5825 5826 5828 5830 5833 5835 5837 5838 5840 5841 5842 5843 5844 5846 5848 5850 5852 5854 5856 5857 5858 5859 5861 5862 5863 5864 5866 5867 5869 5870 5870 5871 5873 5874 5875 5876 5877 5877 5878 5879 5879 5880 5881 5882
5787 5789 5791 5792 5794 5796 5798 5800 5802 5803 5805 5807 5809 5812 5813 5814 5816 5819 5820 5822 5824 5826 5828 5830 5833 5835 5836 5837 5839 5840 5841 5842 5843 5846 5848 5849 5851 5853 5854 5855 5856 5857 5857 5859 5860 5861 5863 5865 5866 5867 5868 5869 5870 5872 5872 5873 5873 5874 5875 5875 5876 5877 5878
5787 5789 5790 5792 5794 5795 5797 5799 5800 5802 5803 5805 5807 5808 5810 5812 5814 5816 5817 5820 5821 5823 5825 5827 5829 5831 5832 5834 5835 5837 5838 5839 5840 5843 5845 5847 5849 5850 5850 5851 5853 5853 5854 5855 5856 5857 5858 5860 5862 5863 5864 5865 5866 5867 5868 5869 5870 5870 5871 5871 5872 5873 5874
5787 5788 5790 5791 5793 5794 5796 5797 5799 5800 5801 5803 5805 5806 5808 5810 5812 5814 5815 5817 5818 5820 5822 5824 5826 5827 5829 5831 5832 5834 5835 5836 5838 5840 5842 5843 5845 5846 5847 5848 5849 5850 5850 5851 5852 5853 5854 5856 5857 5858 5859 5861 5862 5863 5864 5865 5866 5866 5867 5867 5868 5869 5870
5787 5788 5789 5791 5792 5794 5795 5796 5797 5799 5800 5802 5804 5805 5807 5808 5810 5811 5813 5814 5816 5817 5819 5821 5822 5824 5825 5828 5830 5831 5832 5834 5835 5836 5838 5840 5841 5842 5843 5844 5845 5845 5846 5847 5848 5849 5850 5852 5853 5854 5855 5856 5857 5858 5859 5860 5861 5861 5862 5862 5863 5864 5865
5786 5787 5789 5791 5792 5793 5794 5795 5796 5797 5799 5801 5802 5804 5805 5806 5807 5808 5810 5811 5813 5815 5816 5818 5819 5820 5822 5824 5826 5828 5829 5830 5832 5833 5834 5835 5836 5838 5840 5840 5840 5841 5843 5843 5844 5845 5846 5847 5848 5849 5850 5851 5852 5853 5854 5855 5855 5856 5857 5858 5858 5859 5860
5786 5787 5788 5790 5791 5792 5793 5794 5795 5796 5798 5799 5800 5802 5803 5804 5805 5806 5807 5808 5810 5812 5813 5815 5816 5817 5819 5820 5822 5823 5825 5826 5828 5829 5830 5830 5831 5833 5835 5836 5836 5837 5838 5839 5840 5841 5842 5842 5843 5844 5845 5845 5846 5847 5848 5849 5850 5851 5852 5853 5853 5854 5855
5786 5787 5788 5789 5790 5791 5792 5793 5794 5795 5796 5798 5799 5800 5801 5802 5803 5804 5805 5806 5808 5809 5810 5811 5813 5815 5816 5817 5818 5819 5820 5822 5823 5825 5825 5825 5827 5828 5830 5831 5831 5833 5834 5834 5835 5836 5836 5837 5838 5839 5840 5840 5841 5841 5842 5843 5844 5845 5846 5847 5848 5848 5849
5786 5787 5788 5789 5790 5791 5792 5793 5793 5794 5796 5797 5798 5799 5800 5801 5802 5803 5804 5805 5806 5807 5808 5809 5810 5812 5813 5815 5816 5817 5817 5818 5819 5820 5821 5821 5822 5824 5825 5826 5827 5828 5829 5829 5830 5830 5831 5832 5832 5833 5834 5835 5835 5836 5836 5837 5837 5838 5840 5841 5841 5842 5843
5785 5787 5788 5789 5790 5791 5792 5792 5793 5794 5795 5796 5797 5798 5799 5800 5801 5802 5803 5803 5804 5805 5806 5807 5808 5809 5811 5812 5813 5814 5815 5815 5815 5816 5817 5817 5818 5819 5821 5822 5823 5823 5824 5825 5825 5825 5826 5826 5827 5827 5828 5828 5829 5829 5830 5831 5831 5832 5833 5834 5834 5835 5836
5785 5786 5787 5789 5790 5791 5792 5792 5793 5794 5795 5796 5797 5797 5799 5800 5800 5801 5802 5802 5803 5804 5804 5805 5806 5807 5808 5809 5810 5811 5811 5811 5812 5812 5812 5813 5814 5815 5816 5817 5818 5818 5819 5820 5820 5821 5821 5821 5821 5822 5822 5822 5822 5822 5823 5824 5824 5825 5826 5827 5827 5828 5829
Wind_Speed
11 15 24 25 19 15 19 21 23 22 19 17 16 20 20 15 16 15 11 12 12 9 11 17 19 17 14 13 15 18 20 21 21 20 20 21 23 24 24 22 21 20 19 17 16 17 16 16 17 17 18 19 18 18 18 17 16 15 15 13 12 11 10
12 15 23 26 23 20 15 13 16 19 20 20 18 19 20 16 16 17 13 10 11 9 8 10 14 16 15 14 16 18 19 19 19 18 18 18 18 20 23 24 24 22 20 18 17 17 17 16 16 16 17 19 19 19 19 18 18 17 16 15 14 13 12
11 14 22 28 28 24 15 8 10 15 20 23 20 16 16 15 16 19 18 14 11 10 8 6 8 11 13 14 16 17 18 18 18 18 18 17 16 14 17 23 24 23 21 20 19 19 18 17 16 15 16 17 18 18 19 19 19 18 17 17 16 15 14
11 14 18 26 31 27 21 15 11 15 21 24 24 20 15 15 16 18 20 16 12 11 9 7 8 10 10 12 15 17 19 19 19 18 16 16 16 15 15 19 22 22 21 21 21 22 22 21 18 16 16 17 17 17 18 19 19 19 18 17 17 17 16
12 13 11 19 28 28 27 23 16 17 22 24 24 22 18 18 17 17 19 17 12 11 10 9 10 10 11 13 14 17 19 20 20 18 16 16 18 18 18 19 20 20 20 20 21 22 23 22 20 18 18 17 16 16 17 19 19 19 18 18 18 18 17
19 16 12 15 24 27 28 30 22 17 19 19 17 16 17 19 17 17 19 18 13 10 10 12 12 10 11 13 14 16 18 20 20 19 18 18 17 16 16 17 19 19 21 22 20 21 22 20 19 20 18 15 14 14 14 16 17 18 18 18 19 18 17
26 24 17 15 22 25 24 28 25 16 12 13 12 10 13 16 15 16 18 18 17 14 11 12 12 12 14 15 16 19 20 21 22 21 17 16 15 15 16 18 19 20 22 24 23 23 24 22 20 22 20 17 15 14 13 14 14 15 16 17 18 17 16
23 22 17 14 18 22 22 22 24 20 14 12 11 8 10 13 12 13 15 16 18 18 15 12 11 12 14 14 15 17 19 22 25 22 18 17 18 19 20 21 22 21 21 23 24 26 27 25 23 24 23 21 18 15 15 15 14 14 14 15 17 16 15
20 20 16 12 13 20 25 22 20 21 20 15 12 10 9 12 12 14 15 15 15 17 18 15 12 12 14 14 15 16 16 21 24 22 20 21 20 20 21 21 21 21 21 23 25 27 28 27 26 26 26 24 20 17 17 17 15 14 13 14 16 16 15
23 25 20 18 18 19 26 26 18 19 21 18 18 16 15 16 13 15 18 17 14 16 18 17 15 15 15 13 13 15 17 20 21 18 19 22 20 19 21 19 18 19 21 23 25 26 26 26 28 29 28 26 23 21 20 19 17 16 15 14 15 16 15
25 26 21 24 25 18 22 27 22 19 18 18 22 22 20 22 18 17 19 17 14 14 16 18 18 18 16 12 8 9 14 20 20 16 16 20 20 19 19 18 18 19 19 21 24 25 24 23 25 28 30 28 25 23 23 23 20 17 15 15 16 17 16
28 27 24 27 26 19 21 26 23 23 20 18 22 22 21 24 20 17 19 18 16 15 15 16 18 19 18 16 13 9 10 16 20 19 17 18 18 19 19 20 20 20 20 20 23 25 24 21 21 25 29 28 26 24 24 24 21 18 17 17 18 20 18
31 30 29 32 28 24 29 29 25 27 27 23 24 25 23 24 22 19 20 20 20 18 17 18 19 20 20 19 19 15 11 13 15 14 15 17 17 18 20 22 23 23 23 23 23 24 24 23 23 25 28 28 26 25 25 25 24 21 20 18 19 22 22
34 32 31 33 31 30 35 35 31 32 31 26 25 25 22 23 26 24 22 24 25 23 20 21 22 23 22 21 20 17 15 16 15 11 9 13 15 16 17 19 20 21 23 25 26 26 26 26 26 26 26 25 25 25 27 27 26 23 22 21 22 23 23
38 35 31 31 34 35 37 38 38 38 36 27 22 23 21 21 27 30 27 27 27 25 23 23 24 25 24 21 20 16 13 15 16 13 11 12 12 12 14 16 16 17 19 21 23 24 25 26 26 26 26 25 24 25 26 28 27 25 24 24 26 26 25
37 39 36 33 35 36 37 37 39 42 40 31 25 25 24 22 24 28 30 31 32 31 31 30 29 27 24 21 20 17 14 14 14 14 15 15 14 12 12 13 15 16 16 16 17 17 17 17 18 19 22 24 25 25 26 27 29 29 28 27 28 27 26
32 38 41 39 37 37 36 35 39 45 43 34 29 29 28 25 25 26 30 35 37 37 36 35 34 32 28 25 24 22 20 19 20 21 21 19 19 19 16 13 13 14 15 15 15 15 14 13 13 15 17 20 24 25 25 27 29 31 31 30 30 28 27
26 32 38 40 39 40 38 35 37 44 45 38 32 31 30 29 29 30 30 31 33 35 33 31 32 33 31 28 27 26 25 23 23 21 18 17 18 22 22 20 18 17 16 15 15 14 15 16 15 16 16 18 21 22 23 26 28 30 31 32 33 32 30
24 28 33 36 39 43 44 39 33 36 40 39 37 35 34 35 35 34 32 31 32 32 31 30 30 31 32 31 29 27 26 27 24 18 16 16 16 17 21 21 20 20 19 18 19 19 19 18 17 17 17 17 18 19 19 22 25 29 31 34 36 36 35
22 27 30 33 36 40 45 46 40 33 32 35 39 39 39 42 43 39 36 35 35 33 32 32 31 30 30 31 32 31 29 29 26 20 20 23 21 18 18 18 20 22 21 20 22 22 22 21 18 17 17 18 18 17 17 17 20 24 28 31 33 34 34
22 25 28 31 33 36 40 45 45 41 35 33 38 42 41 43 45 43 40 39 37 34 32 31 31 30 30 29 31 32 30 29 27 23 24 27 28 27 26 23 21 20 19 19 21 22 22 22 20 19 17 17 17 17 16 16 17 20 22 24 25 26 27
22 25 27 29 32 34 36 38 40 41 38 34 35 41 44 43 44 44 43 40 37 34 32 30 28 29 30 30 30 29 28 28 28 28 27 26 24 25 25 24 23 19 17 17 19 20 22 22 21 21 19 18 18 18 18 18 18 18 19 19 20 20 21
21 24 26 27 29 32 34 36 37 36 35 33 33 38 43 45 44 43 43 41 37 34 32 29 27 25 25 28 30 30 27 26 26 26 24 22 21 19 17 17 17 16 15 16 17 19 20 20 20 21 21 21 21 20 21 21 20 20 20 19 19 18 18
20 23 24 24 26 29 30 33 34 34 33 33 33 36 41 44 44 43 42 41 39 38 36 33 29 27 25 25 27 28 27 26 25 22 20 20 20 19 16 15 15 15 16 16 17 18 19 19 19 20 21 22 22 23 24 24 22 22 22 22 21 20 19
19 21 22 22 23 26 26 26 26 28 30 32 33 35 37 40 42 43 43 42 40 38 37 34 30 28 26 25 27 28 27 25 24 21 19 19 19 18 16 17 17 17 17 18 19 19 20 21 21 21 22 23 24 24 25 24 23 23 24 24 24 23 22
18 19 20 21 22 24 24 22 22 23 25 26 27 28 30 33 36 38 39 38 33 29 27 27 27 26 24 24 26 27 27 26 25 23 21 21 20 19 18 20 20 19 20 21 22 22 23 24 24 25 25 25 26 27 27 25 24 23 24 24 24 24 24
17 17 19 21 21 21 21 21 21 22 23 22 21 22 23 25 26 29 31 30 28 26 25 24 25 25 25 25 26 26 25 25 25 24 23 23 23 23 23 24 24 24 24 24 24 25 25 25 26 28 27 26 27 28 28 27 25 25 25 25 25 25 25
14 15 17 19 20 20 19 19 19 18 19 21 21 22 23 23 23 24 25 25 24 24 24 23 23 24 24 24 26 27 28 27 26 24 22 23 24 24 25 26 27 27 27 27 26 26 26 25 26 27 28 27 26 27 27 26 25 25 26 26 27 27 28
11 13 13 16 20 19 17 17 17 17 17 18 18 19 19 20 20 20 21 21 21 21 20 20 21 21 22 23 23 24 26 28 28 26 24 23 23 24 25 26 27 27 27 27 26 26 26 27 27 28 28 29 28 29 28 27 26 26 27 28 28 29 29
9 9 7 8 13 15 14 13 13 15 17 19 18 17 16 17 17 18 19 20 21 21 21 21 21 21 22 23 23 23 23 25 26 27 25 24 24 25 26 26 27 27 27 27 26 26 26 27 28 29 30 30 31 31 32 31 31 31 31 31 31 31 31
7 8 7 6 7 10 12 12 10 11 14 16 17 18 18 17 18 19 19 20 20 20 21 22 23 23 23 23 23 23 24 24 25 26 26 26 26 26 27 28 29 29 29 29 29 28 28 28 29 30 31 32 32 33 34 34 34 34 34 34 34 34 34
8 8 9 8 7 7 9 11 11 10 11 12 14 16 17 17 17 18 18 18 18 17 17 18 20 21 22 23 23 24 25 26 26 26 27 27 27 27 27 29 31 32 32 33 32 32 31 31 32 32 33 34 34 34 35 35 35 36 36 36 36 37 37
8 8 8 9 9 9 9 9 10 10 10 11 13 15 16 17 18 18 19 19 18 18 17 17 17 17 18 19 20 22 24 25 26 26 27 28 28 28 27 29 31 32 33 34 34 34 34 34 34 35 36 36 37 36 36 36 37 38 38 38 38 39 38
5 6 7 8 10 10 11 11 10 11 11 11 12 14 15 16 17 18 19 19 19 18 18 17 16 16 16 16 17 18 20 21 23 24 25 26 27 27 28 29 30 30 31 32 33 34 35 35 35 36 36 37 39 39 39 39 39 40 40 41 41 41 41
4 5 6 8 9 10 10 10 10 10 10 10 11 12 13 14 14 15 16 16 16 16 16 16 15 15 15 15 15 15 16 18 19 20 21 22 23 23 25 26 28 29 30 32 33 34 35 35 36 36 36 37 38 39 40 41 41 42 42 42 43 44 44
4 4 6 8 9 9 9 10 9 9 9 9 9 10 10 11 11 11 12 13 14 14 14 14 15 15 15 15 16 16 17 17 18 20 20 21 21 21 21 22 24 26 27 29 31 32 34 35 36 37 37 38 39 40 40 41 41 42 42 42 43 44 45
6 6 7 9 9 9 9 9 9 9 9 10 10 10 10 11 12 12 13 13 14 15 15 16 17 18 18 19 19 20 21 21 22 23 23 24 24 24 23 23 24 25 26 27 28 30 31 33 34 36 37 38 39 40 41 42 43 44 44 44 44 44 45
Wind_Direction
224 198 206 208 194 207 231 226 223 226 226 230 232 227 230 236 229 229 245 246 235 223 202 201 206 199 193 201 201 196 192 191 197 203 207 212 214 215 213 212 213 215 215 213 213 218 221 221 219 219 224 227 225 225 226 224 220 215 213 214 216 221 226
229 201 198 202 192 193 217 228 225 227 227 232 236 229 232 239 230 225 235 243 237 228 195 182 197 198 193 196 196 195 195 193 195 198 199 200 205 211 214 214 214 215 217 216 214 218 221 222 220 216 220 226 227 226 227 227 224 221 219 217 216 219 224
225 207 195 203 205 196 184 184 209 213 217 228 233 228 232 239 234 228 232 242 247 234 209 180 183 189 194 195 193 195 199 202 204 203 203 202 199 201 209 213 213 216 220 221 219 221 224 224 222 219 220 225 227 228 229 230 228 227 226 225 223 222 224
220 223 199 204 212 206 186 181 196 200 209 223 228 227 231 236 237 235 233 239 247 233 211 193 189 191 192 188 186 192 197 201 204 203 202 200 200 201 206 210 211 213 217 218 218 221 224 224 221 220 222 225 228 228 230 232 233 232 231 231 231 228 226
201 230 219 205 210 209 196 194 199 199 208 219 224 225 230 234 236 236 236 238 240 229 212 203 203 197 187 182 186 196 201 204 205 204 201 199 202 205 207 210 211 211 213 214 215 220 223 224 222 220 223 226 229 231 230 233 235 235 235 235 235 234 231
173 196 211 203 204 205 202 204 205 203 211 215 215 223 229 234 239 239 238 240 239 230 214 209 209 199 186 190 204 214 217 218 214 209 208 208 211 211 212 217 218 215 215 214 214 219 224 228 228 225 228 235 239 240 238 237 236 237 238 239 240 238 237
177 183 190 191 191 192 199 211 208 196 211 216 205 219 233 235 242 243 240 240 234 221 208 208 206 194 190 200 218 220 215 219 221 215 208 204 207 213 218 223 220 217 219 217 217 220 221 224 226 223 226 235 239 240 242 239 236 237 239 240 241 241 241
190 189 189 185 188 185 188 211 216 199 198 211 197 196 229 242 258 260 251 248 237 220 211 216 212 207 208 212 217 213 211 217 216 209 200 196 200 208 215 220 219 219 224 223 223 226 225 222 222 221 222 228 231 234 235 229 228 236 239 240 240 239 239
180 185 183 178 197 196 184 195 217 203 192 203 200 193 228 249 269 272 258 254 244 222 215 217 211 212 220 217 211 217 234 235 219 203 196 197 200 204 210 220 224 222 225 224 221 224 226 224 225 225 223 225 230 234 231 222 223 234 239 242 241 235 231
169 175 177 176 190 199 188 186 195 196 199 213 210 209 229 236 246 264 262 259 247 222 214 214 209 207 214 220 220 227 238 233 220 211 203 198 200 202 206 216 222 219 222 224 219 217 221 225 229 228 223 223 229 232 229 222 222 230 235 241 241 233 229
181 182 183 180 184 192 191 186 181 185 203 218 211 210 220 218 223 250 259 257 246 227 215 212 213 213 215 221 226 233 235 223 215 216 210 202 200 201 203 210 218 218 218 219 215 214 218 226 232 229 222 224 231 232 230 228 226 228 233 237 235 231 234
190 189 185 182 187 187 181 179 180 184 193 214 226 227 219 209 214 240 251 254 253 240 221 210 214 219 222 224 217 216 232 223 211 210 214 214 205 199 202 207 210 213 213 211 210 213 220 227 233 231 224 225 234 237 234 231 231 233 236 235 231 229 236
191 189 186 187 187 177 172 175 185 190 187 196 218 228 221 211 216 231 241 248 253 244 222 210 215 220 225 232 230 227 234 229 219 212 215 222 216 202 201 204 205 207 208 207 205 208 215 218 225 230 226 228 236 240 237 232 231 237 240 237 233 231 235
194 191 189 190 184 176 177 178 181 191 193 192 205 220 222 219 222 226 229 232 238 239 224 214 218 221 225 235 240 241 242 237 237 238 229 233 233 217 204 202 200 199 201 203 202 206 213 216 219 223 225 230 237 240 239 234 232 237 242 239 235 232 234
196 195 194 194 190 187 187 182 180 188 193 190 197 212 215 216 219 221 221 223 230 236 231 224 225 226 229 236 242 248 251 245 247 252 248 250 252 235 217 210 203 195 195 199 200 205 214 216 218 221 223 228 234 237 238 234 231 233 235 234 234 234 237
201 202 204 202 198 196 196 191 187 188 188 187 194 204 208 211 214 218 222 224 228 234 236 233 232 232 235 239 243 250 257 259 261 260 256 258 257 243 222 211 206 200 198 199 198 202 210 213 218 225 228 230 233 236 237 233 231 232 234 235 237 240 244
207 208 210 208 204 203 201 195 189 187 187 188 193 202 209 211 212 219 226 227 228 232 236 236 236 239 242 243 248 254 259 264 267 265 261 256 250 243 236 229 226 219 212 207 206 209 215 220 226 232 235 236 237 239 238 234 233 234 236 238 239 241 246
211 211 212 210 209 209 207 201 190 188 192 194 196 202 207 210 215 221 224 225 226 230 233 236 240 244 248 250 253 255 257 263 266 258 245 235 231 233 237 242 246 239 230 225 225 228 233 237 241 246 248 248 247 246 243 239 238 238 238 241 243 244 246
213 213 212 211 210 211 215 215 202 192 195 199 200 202 204 209 220 226 224 225 229 232 234 236 239 244 248 252 254 254 255 258 255 239 226 231 234 230 231 235 235 233 235 237 237 239 243 245 250 257 259 258 255 253 249 243 242 242 243 246 249 251 252
215 215 215 214 213 214 218 221 217 208 205 202 200 202 204 210 219 228 229 227 230 235 238 238 239 244 247 249 252 254 254 254 248 236 235 242 244 242 241 239 232 229 231 236 236 236 238 241 246 254 259 259 256 253 248 242 238 239 242 245 249 252 254
218 217 217 216 216 217 219 222 223 224 224 214 206 206 208 212 219 227 229 228 229 234 237 238 241 245 248 248 250 251 250 250 247 241 239 241 244 247 248 247 246 242 235 233 236 237 238 240 242 244 249 256 257 254 250 244 239 237 239 241 245 248 250
220 217 217 218 218 218 220 222 223 225 227 224 215 211 212 214 219 224 227 229 232 235 238 241 242 245 246 244 243 245 246 243 238 233 232 235 237 238 239 240 245 249 243 236 236 238 242 245 246 243 243 247 252 252 249 245 242 240 240 241 243 246 250
222 218 217 219 220 218 218 220 221 221 224 226 222 216 216 217 218 222 226 229 231 234 238 242 241 240 241 239 237 239 239 233 226 223 224 227 225 222 223 229 237 240 239 237 235 235 240 245 248 247 245 243 243 244 244 243 241 240 239 239 239 243 248
224 222 221 222 220 215 216 219 220 221 224 226 225 220 219 220 220 221 226 230 234 238 241 242 241 239 240 235 229 229 230 227 226 224 220 222 228 230 223 224 233 236 236 236 234 234 237 242 247 249 248 244 244 245 246 246 244 243 242 241 240 240 244
221 221 223 227 222 214 214 216 216 219 224 226 223 218 216 220 222 224 228 233 237 241 242 240 237 235 236 232 223 222 227 231 234 235 231 230 240 244 235 231 237 239 237 237 235 235 239 243 248 251 248 243 242 244 246 247 248 250 250 249 247 246 246
220 219 220 225 223 217 218 217 214 219 223 221 216 211 211 217 221 224 228 231 233 234 233 230 227 228 233 234 229 228 233 236 239 243 242 241 247 250 245 243 244 243 241 241 239 239 241 244 248 251 251 246 243 244 246 247 247 250 254 255 255 255 255
219 218 217 218 218 217 219 218 217 224 230 228 220 213 213 218 221 223 227 229 232 234 234 231 231 234 238 240 239 238 240 242 245 248 250 251 253 252 249 247 247 247 246 244 243 243 244 244 246 250 252 249 245 246 249 250 248 248 251 254 256 258 259
215 215 217 216 217 219 220 220 222 229 236 236 232 226 226 228 229 231 233 235 236 238 239 239 239 241 244 246 246 247 248 249 251 254 256 256 256 256 254 251 250 251 251 250 249 248 247 246 247 248 250 249 245 245 249 252 252 250 250 252 254 256 257
214 214 216 216 220 226 228 228 233 238 237 234 231 229 228 229 231 234 237 238 239 241 243 245 244 244 246 249 250 250 251 251 253 255 256 254 254 256 257 255 254 255 255 255 255 253 250 249 248 247 247 247 246 246 248 251 253 254 254 254 253 254 255
218 213 203 200 212 220 222 224 229 231 229 228 227 228 229 231 233 238 241 244 247 249 250 251 251 249 249 251 253 253 252 251 252 254 254 254 254 254 255 255 256 256 257 258 258 256 254 252 250 249 247 246 246 248 249 251 253 255 257 257 256 254 254
218 218 210 202 202 204 205 209 212 214 217 220 224 229 234 238 241 244 246 248 250 251 252 253 254 254 253 253 254 255 255 254 254 254 255 255 255 254 254 255 256 257 258 260 259 257 255 253 252 251 250 249 247 247 249 251 252 252 253 255 256 255 254
208 219 222 223 216 199 197 206 212 214 215 215 218 223 228 233 238 241 244 246 248 249 251 252 253 255 256 256 255 254 255 255 256 257 257 256 255 253 252 252 254 256 257 258 258 257 255 253 252 251 251 251 251 250 249 249 249 250 250 251 252 253 254
202 210 214 212 207 203 202 207 210 214 216 215 218 222 225 229 233 237 241 245 249 252 252 252 253 255 257 257 256 255 255 255 256 257 257 257 257 256 253 253 254 255 256 256 257 257 256 255 253 251 251 251 251 251 251 250 250 250 250 250 251 252 253
183 196 198 196 196 200 206 209 209 212 214 213 217 224 228 230 233 237 240 243 246 250 253 253 253 254 255 255 255 256 257 257 258 258 258 258 258 257 256 256 257 257 257 258 258 259 259 258 256 254 253 252 251 251 252 252 252 252 251 251 251 252 252
155 173 175 181 190 195 201 205 206 208 211 212 214 220 226 229 232 236 240 243 243 246 250 252 251 252 253 253 253 255 257 259 260 261 262 262 261 260 259 258 259 259 260 260 260 261 261 260 260 259 257 255 254 254 254 254 254 254 254 253 253 252 253
163 177 167 173 185 189 190 196 198 199 207 213 213 215 222 230 233 235 239 244 246 247 250 254 256 257 258 259 260 261 263 265 267 268 268 267 267 267 266 265 264 263 263 263 263 263 263 263 263 262 261 260 258 256 256 255 255 256 256 256 255 255 254
208 217 192 181 187 189 190 198 203 204 213 225 230 231 233 238 243 245 247 251 255 258 260 262 264 267 269 270 270 270 271 271 272 272 273 273 272 271 271 271 272 271 270 269 268 268 267 266 265 264 264 264 263 261 259 257 256 256 256 256 256 257 256